Location: ????????
(60.4333°N, 46.4710°E)
Time: 04:04:41
(UTC+00:00)

Cosmos 1602 - Pass Details

Date: 25 November 2020
Orbit: 512 x 534 km, 82.5° (Epoch: 19 January)

Event Time Altitude Azimuth Distance (km) Brightness Sun altitude
Rises 14:04:33 0° 348° (NNW) 2,704 7.3 -13.7°
Reaches altitude 10° 14:06:53 10° 359° (N) 1,807 6.3 -14.0°
Maximum altitude 14:10:30 33° 64° (ENE) 927 4.4 -14.4°
Enters shadow 14:13:43 12° 127° (SE) 1,657 5.9 -14.8°
